Location: Haliburton Scout Reserve
(45.0900°N, 78.3200°W)
Time: 18:21:53
(UTC-04:00)

STRAND 1 - Pass Details

Date: 05 April 2023
Orbit: 767 x 779 km, 98.4° (Epoch: 06 June)

Event Time Altitude Azimuth Distance (km) Brightness Sun altitude
Rises 20:36:15 0° 9° (N) 3,249 ? -9.4°
Reaches altitude 10° 20:38:36 10° 4° (N) 2,318 ? -9.8°
Maximum altitude 20:43:33 52° 289° (WNW) 949 ? -10.6°
Drops below altitude 10° 20:48:28 10° 214° (SW) 2,303 ? -11.4°
Sets 20:50:48 0° 210° (SSW) 3,226 ? -11.8°
